This is the latest recevied weather packets stored in our database for station/object VA2RBQ-7. If no packets are shown the sender has not sent any weather packets the latest 10 day(s).
| Time | Temp. | Humidity | Pressure | Rain* | Wind** | Luminosity | Snow |
|---|---|---|---|---|---|---|---|
| 1788269824 | 12.22° C | 62% | 1022.2 hPa | 0 mm | - | - | - |
| 1788269505 | 12.22° C | 62% | 1022.2 hPa | 0 mm | - | - | - |
| 1788269203 | 11.67° C | 62% | 1022.1 hPa | 0 mm | - | - | - |
| 1788268901 | 11.67° C | 62% | 1022.1 hPa | 0 mm | - | - | - |
| 1788268597 | 11.11° C | 62% | 1022.1 hPa | 0 mm | - | - | - |
| 1788268295 | 11.11° C | 62% | 1022 hPa | 0 mm | - | - | - |
| 1788267690 | 10.56° C | 61% | 1021.9 hPa | 0 mm | - | - | - |
| 1788267388 | 10° C | 61% | 1022 hPa | 0 mm | - | - | - |
| 1788267084 | 10° C | 61% | 1021.9 hPa | 0 mm | - | - | - |
| 1788266782 | 10.56° C | 61% | 1021.8 hPa | 0 mm | - | - | - |
| 1788266479 | 10° C | 61% | 1022 hPa | 0 mm | - | - | - |
| 1788266177 | 10.56° C | 61% | 1021.9 hPa | 0 mm | - | - | - |
| 1788265875 | 10° C | 61% | 1022 hPa | 0 mm | - | - | - |
| 1788265571 | 9.44° C | 61% | 1021.8 hPa | 0 mm | - | - | - |
| 1788265269 | 10° C | 61% | 1021.8 hPa | 0 mm | - | - | - |
| 1788264967 | 9.44° C | 60% | 1021.8 hPa | 0 mm | - | - | - |
| 1788264664 | 10° C | 60% | 1021.8 hPa | 0 mm | - | - | - |
| 1788264362 | 10.56° C | 60% | 1021.8 hPa | 0 mm | - | - | - |
| 1788264058 | 10° C | 60% | 1021.8 hPa | 0 mm | - | - | - |
| 1788263756 | 10° C | 60% | 1021.8 hPa | 0 mm | - | - | - |
| 1788263453 | 8.89° C | 60% | 1021.8 hPa | 0 mm | - | - | - |
| 1788263151 | 9.44° C | 59% | 1021.6 hPa | 0 mm | - | - | - |
| 1788262849 | 8.33° C | 59% | 1021.5 hPa | 0 mm | - | - | - |
| 1788262546 | 8.89° C | 59% | 1021.5 hPa | 0 mm | - | - | - |
| 1788262243 | 8.33° C | 59% | 1021.5 hPa | 0 mm | - | - | - |
* Rain since midnight (hover to see other rain measurements)
** Current wind speed in m/s (hover to see current wind gust speed)